Погода в Барановке

Россия / Ульяновская область     53°01′28″N   47°09′30″E
темп.,
°C
ветер,
м/с
пор.,
м/с
влажн.,
%
обл.,
%
осадки,
мм/ч
давл.,
гПа
погр.,
м
19 апреля, пн
пн1901:00+8св4966100 0.1 1019207
04:00+6всв51178100 0.1 1020393
07:00+5всв51277100 0.0 1020478
10:00+7всв71066100 0.0 1021666
13:00+9всв7956100 0.0 10201047
16:00+11всв7953100 0.0 10201415
19:00+8вюв61074100 0.0 10201035
22:00+4в81482100 0.1 1023895
20 апреля, вт
вт2001:00+2в61394100 0.3 1023650
04:00+3в71380100 0.4 1024811
07:00+3вюв71370100 0.0 1024827
10:00+3вюв71465100 0.1 1026828
13:00+6вюв81354100 0.0 1025979
16:00+8вюв81353100 0.0 10231212
19:00+7вюв81556100 0.0 10221083
22:00+5вюв91660100 0.1 1022989
21 апреля, ср
ср2101:00+4юв91957100 0.0 1020859
04:00+3юв92081100 0.6 1018783
07:00+2юв92090100 3.1 1018861
10:00+3ююв81893100 3.9 1018777
13:00+3ююв71594100 0.3 1019669
16:00+4ююв71394100 0.3 1020595
19:00+3ююв61296100 0.0 1021471
22:00+3ююв51297100 0.0 1021461
22 апреля, чт
чт2201:00+3ююв51198100 0.1 1021369
04:00+4ююв4998100 0.2 1021296
07:00+5ю4997100 0.0 1022411
10:00+7ю5788100 0.0 1023467
13:00+10ююз467991 0.0 1024684
16:00+12ююв457259 0.1 1023807
19:00+10ююв588257 0.1 1024390
22:00+7ююв3993100 0.1 1025211
23 апреля, пт
пт2301:00+5ююв3795100 0.0 1025187
04:00+5ююв2594100 0.0 1025167
07:00+5юв2494100 0.0 1025178
10:00+7юв238499 0.0 1025362
13:00+12вюв236592 0.0 1023903
16:00+13в3359100 0.1 10221272
19:00+10в3570100 0.0 1022250
22:00+6вюв2389100 0.0 102261